Capitol Logistics 2297


KDFW
Dallas-Fort Worth International Airport
Dallas, Texas, US
KSDF
Louisville International Airport-Standiford Field
Louisville, Kentucky, US

Activity Log

Date Flight Route Aircraft Duration
No Flights Yet

Route Details

Aircraft Information
Primary: Boeing 747-400BCF
Backup: Boeing 767-300BDSF
Date Restrictions
Between:Nov 16, 2019
Dec 31, 2019
Route Data
Distance: 637nm
Sched. Duration: 1h 29m
Avg. Duration: 0h 00m (-129m)
Times Flown: 0
Recm'd Route: AKUNA7 MLC FSM PENBE ALENN DAMEN5
Planned Altitude: 31,000ft
Origin Wx: KDFW 221453Z 03008KT 6SM BR BKN011 BKN016 OVC040 09/08 A2999 RMK AO2 SLP153 60000 T00940078 51017
Dest. Wx: KSDF 221456Z 30011KT 10SM FEW180 BKN220 02/M05 A3008 RMK AO2 PRESRR SLP188 T00171050 53029
Notes: SEASONAL FLIGHT | UPS SURGE OPS CONTRACT

Financial History
Total Freight: 0lbs
Average Load: 0lbs/flt
Fuel Used: 0lbs
Avg. Fuel Used: 0lbs/flt
Fuel Expense: $0
Avg. Fuel Expense: $0
Avg. Fuel Cost: $0/lbs
Total Gross Income: $0
Pilot Pay: $0
Total Expenses: $0
Total Revenue: $0
Average Revenue: $0